Regional Weather Roundup
Issued by NWS

Home | Current Version | Previous Version | Text Only | Print | Product List | Glossary On
Versions: 1 2 3 4 5 6 7 8 9 10 11 12 13 14 15 16 17 18 19 20 21 22 23 24 25 26 27 28 29 30 31 32 33 34 35 36 37 38 39 40 41 42 43 44 45 46 47 48
000
ASUS42 KFFC 052303
RWRGA
WEATHER ROUNDUP FOR GEORGIA
NATIONAL WEATHER SERVICE PEACHTREE CITY GA
600 PM EST FRI FEB 05 2016

NOTE: "FAIR" INDICATES FEW OR NO CLOUDS BELOW 12,000 FEET WITH NO
SIGNIFICANT WEATHER AND/OR OBSTRUCTIONS TO VISIBILITY.

* = USE WITH CAUTION. THE STATIONS MARKED WITH AN ASTERISK MAY NOT
REPORT WEATHER SUCH AS PRECIPITATION, FOG, OR THUNDER AND ARE NOT
QUALITY CONTROLLED BY NWS.

THE REMARK "TC" DENOTES TEMPERATURE READING IN DEGREES CELSIUS.

GAZ001>058-060000-
NORTH GEORGIA

CITY           SKY/WX    TMP DP  RH WIND       PRES   REMARKS
ATLANTA        PTCLDY    46  16  30 NW10      30.34R
ATHENS         CLEAR     45  23  42 E3        30.33R
CHAMBLEE       CLEAR     47  13  25 N7        30.33R
PEACHTREE CITY CLEAR     47  16  29 N6        30.35R
ROME           CLEAR     45  13  27 N10       30.37S
WEST ATLANTA   CLEAR     46  15  28 NW8       30.35R
GAINESVILLE    CLEAR     45  10  24 W3        30.32R
CARTERSVILLE   CLEAR     44  14  29 VRB7      30.37S


CITY           SKY/WX    TMP DP  RH WIND       PRES   REMARKS
LAWRENCEVILLE* CLEAR     48  10  21 CALM      30.32R
MARIETTA       PTCLDY    45  15  30 NW7       30.34R
KENNESAW*      CLEAR     45  12  26 N8        30.35S
BLAIRSVILLE*     N/A     43  32  64 CALM      30.32R
$$

GAZ059>098-102>109-060000-
CENTRAL GEORGIA

CITY           SKY/WX    TMP DP  RH WIND       PRES   REMARKS
AUGUSTA-BUSH   CLEAR     48  20  32 NE7       30.34R
AUGUSTA-DANIEL CLEAR     50  18  28 N7        30.34R
COLUMBUS       CLEAR     51  10  19 N7        30.34R
MACON          CLEAR     49  19  30 NE5       30.34R
ROBINS AFB     CLEAR     51  15  23 VRB3      30.33R


CITY           SKY/WX    TMP DP  RH WIND       PRES   REMARKS
LAGRANGE*      CLEAR     51  21  30 N9        30.36R
SYLVANIA*      CLEAR     50  31  48 NE3       30.34R
MILLEDGEVILLE* CLEAR     50  19  29 CALM      30.34S
$$

GAZ099>101-110>166-060000-
SOUTH GEORGIA

CITY           SKY/WX    TMP DP  RH WIND       PRES   REMARKS
SAVANNAH       CLEAR     50  24  36 N7        30.33R
VALDOSTA       CLEAR     50  27  40 N6        30.32R
ALMA           CLEAR     51  27  39 N3        30.32R
ST SIMONS      CLEAR     50  37  61 NE8       30.32R
FT STEWART     CLEAR     50  27  40 CALM      30.31R
ALBANY         CLEAR     51  18  27 NE6       30.36R
HUNTER AFB     CLEAR     52  26  37 NE6       30.30R
MOODY AFB      CLEAR     50  26  39 N7        30.31R
BRUNSWICK      CLEAR     52  37  58 E6        30.33R


CITY           SKY/WX    TMP DP  RH WIND       PRES   REMARKS
BAINBRIDGE*    CLEAR     54  23  30 N6        30.34R
MOULTRIE*      CLEAR     52  25  35 N3        30.33R
VIDALIA*       CLEAR     52  23  32 N5        30.33R
WAYCROSS*      CLEAR     53  31  43 NE6       30.32R
DOUGLAS*       CLEAR     52  25  35 NE6       30.34R
$$



USA.gov is the U.S. government's official web portal to all federal, state and local government web resources and services.